SCP
0 0 0 0 0 0 0 0 0 0 0 0 0 0 0 0 0 0 0 0 0 0 0 0 0 0 0 0 0 0 0 0 0 0 0 0 -0 0 0 0 0 0 0
0 0 0 0 0 0 0 0 0 0 0 0 0 0 0 0 0 0 0 0 0 0 0 0 0 0 0 0 0 0 0 0 0 0 -0 -0 -0 -0 0 0 0 0 0
0 0 0 0 0 0 0 0 0 0 0 0 0 0 0 0 0 0 0 0 0 0 0 0 0 0 0 0 0 0 0 0 0 0 0 -0 -0 -0 -0 -0 0 0 0
0 0 0 0 0 0 0 0 0 0 0 0 0 0 0 0 0 0 0 0 0 0 0 0 0 0 0 0 0 0 0 0 -0 -0 0 0 -0 -0 -0 -0 -0 0 0
0 0 0 0 0 0 0 0 0 0 0 0 0 0 0 0 0 0 0 0 0 0 0 0 0 0 0 0 0 0 -0 -0 -0 0 0 0 -0 -0 -0 -0 -0 -0 0
0 0 0 0 0 0 0 0 0 0 0 0 0 0 0 0 0 0 0 0 0 0 0 0 0 0 0 0 -0 -0 -0 0 0 -0 0 0 0 -0 -0 -0 -0 -0 -0
0 0 0 0 0 0 0 0 0 0 0 0 0 0 0 0 0 0 0 0 0 0 0 0 0 0 0 0 0 -0 0 0 0 0 0 0 0 0 0 0 0 0 0
0 0 0 0 0 0 0 0 0 0 0 0 0 0 0 0 0 0 0 0 0 0 0 0 0 0 0 0 0 0 0 0 0 0 0 0 0 0 0 0 0 0 0
0 0 0 0 0 0 0 0 0 0 0 0 0 0 0 0 0 0 0 0 0 0 0 0 0 0 0 0 0 0 0 0 0 0 0 0 0 0 0 0 0 -0 -0
0 0 0 0 0 0 0 0 0 0 0 0 0 0 0 0 0 0 0 0 0 0 0 0 0 0 0 0 0 0 0 0 0 0 0 0 -0 0 0 0 0 0 -0
0 0 0 0 0 0 0 0 0 0 0 0 0 0 0 0 0 0 0 0 0 0 0 0 0 0 0 0 0 0 0 0 0 0 0 0 -0 -0 0 0 0 0 -0
0 0 0 0 0 0 0 0 0 0 0 0 0 0 0 0 0 0 0 0 0 0 0 0 0 0 0 0 0 0 0 0 0 0 0 -0 -0 0 0 0 0 0 0
0 0 0 0 0 0 0 0 0 0 0 0 0 0 0 0 0 0 0 0 0 0 0 0 0 0 0 0 0 0 0 0 0 0 0 0 0 0 0 0 0 0 0
0 0 0 0 0 0 0 0 0 0 0 0 0 0 0 0 0 0 0 0 0 0 0 0 0 0 0 0 0 0 0 0 0 0 0 0 0 -0 0 -0 0 0 0
0 0 0 0 0 0 0 0 0 0 0 0 0 0 0 0 0 0 0 0 0 0 0 0 0 0 0 0 0 0 0 0 0 0 0 -0 -0 -0 0 0 0 0 0
0 0 0 0 0 0 0 0 0 0 0 0 0 0 0 0 0 0 0 0 0 0 0 0 0 0 0 0 0 0 0 0 0 0 0 -0 -0 -0 0 0 0 -0 0
0 0 0 0 0 0 0 0 0 0 0 0 0 0 0 0 0 0 0 0 0 0 0 0 0 0 0 0 0 0 0 0 0 0 0 -0 -0 -0 -0 0 0 0 0
0 0 0 0 0 0 0 0 0 0 0 0 0 0 0 0 0 0 0 0 0 0 0 0 0 0 0 0 0 0 0 0 0 0 0 -0 -0 -0 0 0 0 0 0
0 0 0 0 0 0 0 0 0 0 0 0 0 0 0 0 0 0 0 0 0 0 0 0 0 0 0 0 0 0 0 0 0 0 -0 -0 -0 -0 0 0 0 0 0
0 0 0 0 0 0 0 0 0 0 0 0 0 0 0 0 0 0 0 0 0 0 0 0 0 0 0 0 0 0 0 0 0 0 -0 -0 -0 -0 0 0 0 0 0
0 0 0 0 0 0 0 0 0 0 0 0 0 0 0 0 0 0 0 0 0 0 0 0 0 0 0 0 0 0 0 0 0 -0 -0 -0 -0 0 0 0 0 0 0
0 0 0 0 0 0 0 0 0 0 0 0 0 0 0 0 0 0 0 0 0 0 0 0 0 0 0 0 0 0 0 -0 -0 -0 -0 -0 -0 -0 0 0 0 0 0
0 0 0 0 0 0 0 0 0 0 0 0 0 0 0 0 0 0 0 0 0 0 0 0 0 0 0 0 0 0 0 -0 -0 -0 -0 -0 -0 0 0 0 0 0 0
0 0 0 0 0 0 0 0 0 0 0 0 0 0 0 0 0 0 0 0 0 0 0 0 0 0 0 0 0 -0 -0 -0 -0 -0 -0 0 0 0 0 0 0 0 0
0 0 0 0 0 0 0 0 0 0 0 0 0 0 0 0 0 0 0 0 0 0 0 0 0 0 0 0 -0 -0 -0 -0 -0 -0 -0 -0 0 0 0 0 0 0 0
0 0 0 0 0 0 0 0 0 0 0 0 0 0 0 0 0 0 0 0 0 0 0 0 0 0 -0 0 -0 -0 -0 -0 -0 -0 -0 0 0 0 0 0 0 0 0
Wind_Speed_500mb
18 16 18 22 28 32 32 31 31 32 35 38 40 40 42 44 43 45 46 45 46 46 45 45 47 50 52 55 58 61 63 65 80 109 102 106 110 108 108 104 98 96 89
25 22 22 25 31 35 35 34 34 35 39 41 41 43 43 44 44 44 45 45 46 45 45 45 47 50 52 57 60 63 67 72 75 105 110 111 108 109 109 112 107 98 98
28 27 28 30 34 38 38 36 36 37 42 43 44 45 45 44 44 45 44 46 45 45 44 45 47 50 54 59 62 67 72 76 79 91 113 109 111 113 116 111 110 104 100
28 31 33 37 40 42 40 37 35 40 43 45 46 47 47 46 46 45 44 45 45 44 44 45 47 49 54 58 61 67 72 77 81 82 95 112 114 111 107 111 111 104 109
30 35 39 42 43 45 40 36 38 42 44 46 47 47 47 47 46 46 46 47 47 46 46 45 47 50 53 57 60 64 63 67 72 81 96 107 110 112 104 101 100 110 107
33 39 43 44 46 45 41 39 42 44 46 48 48 48 48 48 47 45 48 48 48 48 49 48 50 51 53 57 59 57 48 58 79 79 86 89 99 97 97 93 94 99 110
35 40 42 44 47 44 44 46 46 46 48 48 49 50 50 48 46 46 48 50 49 48 50 52 53 53 56 60 58 66 70 78 73 77 84 85 92 89 90 98 104 100 102
33 34 37 41 44 46 49 53 51 51 52 50 50 52 51 48 46 48 50 51 51 49 48 50 54 55 57 60 57 71 78 78 79 82 86 86 80 90 92 91 88 98 100
30 35 39 43 47 49 55 56 55 56 55 52 53 52 52 47 49 51 52 53 53 52 48 48 52 54 56 46 58 75 79 83 84 84 87 96 96 89 81 77 80 80 93
40 45 47 50 53 57 59 57 56 57 55 53 53 51 52 50 49 53 55 56 57 56 54 50 48 51 46 42 57 70 80 85 90 96 98 101 97 89 77 67 69 76 81
46 49 54 58 61 62 60 58 57 57 57 55 54 52 52 53 52 53 52 53 54 57 57 55 50 49 39 47 51 67 70 71 85 91 96 96 94 89 80 70 67 69 76
52 55 59 64 64 63 59 55 57 58 57 55 56 55 52 52 55 53 52 49 47 50 54 52 48 46 45 53 67 68 70 74 80 89 93 93 91 90 84 74 71 69 68
59 61 66 68 66 61 57 54 56 56 57 57 59 59 53 51 54 51 50 48 47 44 48 45 45 55 59 65 65 65 68 72 77 84 91 89 85 86 84 76 73 71 67
64 65 67 68 65 60 56 54 55 55 56 58 59 59 56 56 54 50 48 43 41 42 45 50 56 62 63 63 63 61 63 67 72 79 86 87 85 84 81 73 78 76 74
62 60 57 56 56 54 52 51 52 53 54 58 59 58 59 61 54 54 45 42 45 42 47 60 62 59 61 60 62 65 65 66 70 75 81 85 82 82 80 72 72 75 71
55 51 49 48 46 47 50 52 52 57 56 57 58 58 58 59 55 38 41 41 40 41 54 59 56 55 60 62 66 69 66 68 69 74 78 80 80 80 83 73 70 72 74
56 56 55 52 52 53 53 54 58 50 56 58 58 57 57 52 48 45 44 43 42 42 54 53 54 55 59 61 63 65 68 65 67 70 74 77 76 76 77 74 72 73 75
55 57 59 60 59 57 56 59 61 62 63 62 57 59 60 58 56 49 44 45 51 51 52 55 54 54 57 61 62 63 63 62 64 66 70 72 72 72 75 72 71 72 74
62 65 65 66 63 61 62 64 66 66 70 73 70 59 55 56 58 55 53 54 55 50 50 53 53 54 55 57 59 59 60 61 61 63 65 68 68 68 69 68 69 66 68
66 66 65 68 70 69 67 67 68 70 70 73 74 68 55 58 61 56 52 54 54 53 51 53 52 50 51 54 57 57 58 57 57 59 61 63 64 63 64 65 65 68 66
66 67 64 64 63 64 67 70 69 68 71 71 69 61 56 61 61 60 54 52 51 50 51 52 54 51 52 53 58 56 56 55 53 56 57 59 61 61 58 58 61 61 62
62 64 65 64 64 62 62 62 65 68 70 69 69 62 51 52 62 57 53 51 46 48 49 52 53 51 51 53 57 54 54 53 51 52 54 55 57 56 55 55 58 59 58
59 61 62 63 61 61 61 59 60 61 63 64 63 62 60 55 56 55 54 50 46 46 45 50 53 51 50 51 53 52 52 51 48 50 53 53 54 53 52 53 55 57 57
55 56 57 59 60 60 60 59 57 56 57 56 55 54 52 50 52 53 51 48 45 46 43 47 48 49 51 50 50 48 48 48 45 46 49 51 51 50 50 49 49 50 51
55 55 55 57 59 60 59 56 55 54 52 51 51 51 50 47 48 49 50 46 43 46 44 45 46 48 50 50 49 46 45 45 42 43 45 46 47 46 47 47 44 44 44
56 57 58 58 57 57 56 56 53 52 51 49 46 44 44 44 44 44 43 44 43 45 46 44 46 47 48 47 46 44 43 43 39 38 42 41 42 43 42 41 38 38 39
Wind_Direction_500mb
240 271 302 317 325 321 311 303 309 316 324 328 331 334 334 335 336 336 336 336 336 336 336 337 338 337 338 336 336 334 331 328 318 321 323 327 327 328 328 326 325 325 322
238 261 288 308 318 321 311 299 298 307 316 322 325 328 328 329 330 331 331 331 331 331 332 334 335 335 335 335 334 333 332 330 324 321 324 326 326 327 327 324 324 321 320
242 260 280 299 310 318 312 297 292 300 309 315 319 322 323 324 325 325 326 326 327 327 328 331 331 331 332 332 331 332 332 329 325 322 320 324 323 326 325 322 320 319 318
250 266 280 293 304 315 309 297 291 297 305 310 314 317 319 320 321 321 321 321 321 322 324 326 326 327 328 327 329 331 329 326 327 324 317 318 320 324 323 321 318 319 318
261 269 278 290 301 310 306 296 293 297 301 305 309 311 314 316 317 316 318 319 319 319 319 320 321 323 323 327 330 328 327 327 321 314 314 317 320 322 321 319 315 315 315
265 271 277 290 301 304 300 295 295 300 300 301 304 305 310 312 312 313 316 315 315 315 315 317 318 321 321 325 327 325 320 316 315 314 312 311 314 316 317 314 310 312 313
270 274 281 292 299 299 292 290 294 300 299 299 299 301 305 308 307 309 312 311 312 313 314 315 315 319 322 322 323 330 320 322 322 319 313 311 311 317 313 308 305 305 302
278 279 287 293 296 295 288 286 289 295 297 295 296 295 299 303 302 306 307 307 307 307 308 310 314 319 322 325 336 313 317 324 326 321 315 314 310 308 307 305 303 303 305
284 284 284 289 296 298 295 290 286 286 294 294 292 291 295 297 298 302 303 302 302 303 305 311 315 319 322 335 315 314 322 324 322 323 319 315 315 316 312 308 307 308 305
275 279 285 289 295 297 297 289 281 284 290 288 288 289 292 293 295 299 300 300 300 304 305 308 315 319 317 320 317 316 322 324 326 324 320 318 318 317 315 311 312 309 306
277 287 293 295 296 298 296 285 280 282 285 286 286 286 287 289 292 295 296 298 301 303 305 311 313 317 313 316 318 320 321 319 321 320 319 320 320 319 318 315 314 312 306
288 296 301 302 301 300 295 284 276 279 282 282 283 283 285 287 291 294 294 296 298 296 300 306 314 322 306 315 319 320 318 319 320 322 324 325 324 322 321 317 316 314 309
295 299 301 301 300 298 290 280 273 275 277 280 280 282 283 284 287 289 290 292 291 291 299 306 301 305 313 314 317 319 319 321 323 325 327 327 326 324 322 320 320 322 312
300 302 302 301 300 296 287 276 271 270 276 280 280 282 285 286 287 287 288 286 283 293 303 308 308 306 307 310 313 318 320 323 326 327 328 328 326 327 327 328 331 331 325
300 301 302 302 302 297 287 277 272 272 275 279 280 282 285 286 287 285 291 297 301 309 302 291 296 303 307 313 317 319 323 326 327 327 330 330 329 329 330 331 335 336 333
304 306 307 304 300 295 290 283 279 280 280 278 280 283 287 287 289 284 278 279 285 284 281 287 298 305 310 315 317 318 322 325 327 328 330 332 331 331 331 331 336 338 336
310 311 311 310 305 300 292 286 285 277 275 274 274 278 277 274 273 274 273 280 277 277 277 292 299 305 308 311 313 316 319 323 325 327 330 332 332 330 333 333 336 339 338
307 307 307 306 304 299 293 289 284 281 279 272 271 276 275 274 271 272 274 274 271 275 285 291 297 301 305 308 311 313 316 320 323 325 329 332 333 332 333 334 336 339 340
305 304 303 300 298 295 292 288 284 282 281 282 282 273 271 270 269 271 276 272 279 281 285 287 293 298 302 305 307 310 314 318 322 323 327 331 333 332 333 335 335 339 342
303 301 299 297 295 292 287 283 281 280 279 279 280 280 274 265 264 266 269 272 275 281 284 286 290 295 300 303 305 308 312 315 319 321 325 329 333 333 333 336 338 339 343
308 307 306 302 299 295 290 285 282 279 276 274 275 278 277 274 270 269 268 268 272 277 281 286 290 297 301 303 303 305 309 313 317 319 322 328 332 333 333 337 337 340 344
308 308 308 309 308 304 299 294 288 283 281 280 277 275 270 267 269 274 272 269 271 273 279 284 288 294 298 300 300 303 307 312 316 318 321 325 330 333 332 337 338 341 345
311 310 308 307 307 305 301 298 294 289 286 284 282 280 278 270 267 267 269 270 270 272 275 280 286 292 294 296 297 301 304 310 313 317 319 323 329 332 333 336 339 341 345
309 311 312 311 309 308 305 301 298 295 291 287 285 282 280 277 273 270 268 267 269 272 275 279 284 291 293 295 296 298 300 304 309 313 314 319 326 330 333 334 337 340 344
315 315 314 313 313 312 307 303 301 299 296 291 287 284 282 278 274 274 274 269 268 272 276 279 285 288 291 293 295 296 298 301 306 309 310 315 321 328 331 333 336 339 342
318 317 316 313 310 310 309 305 301 301 297 296 291 285 282 277 274 274 274 270 268 272 277 280 284 287 289 290 291 293 294 296 301 304 304 311 320 328 329 333 335 339 340
Wind_Speed_850mb
18 16 18 22 28 32 32 31 31 32 35 38 40 40 42 44 43 45 46 45 46 46 45 45 47 50 52 55 58 61 63 65 80 109 102 106 110 108 108 104 98 96 89
25 22 22 25 31 35 35 34 34 35 39 41 41 43 43 44 44 44 45 45 46 45 45 45 47 50 52 57 60 63 67 72 75 105 110 111 108 109 109 112 107 98 98
28 27 28 30 34 38 38 36 36 37 42 43 44 45 45 44 44 45 44 46 45 45 44 45 47 50 54 59 62 67 72 76 79 91 113 109 111 113 116 111 110 104 100
28 31 33 37 40 42 40 37 35 40 43 45 46 47 47 46 46 45 44 45 45 44 44 45 47 49 54 58 61 67 72 77 81 82 95 112 114 111 107 111 111 104 109
30 35 39 42 43 45 40 36 38 42 44 46 47 47 47 47 46 46 46 47 47 46 46 45 47 50 53 57 60 64 63 67 72 81 96 107 110 112 104 101 100 110 107
33 39 43 44 46 45 41 39 42 44 46 48 48 48 48 48 47 45 48 48 48 48 49 48 50 51 53 57 59 57 48 58 79 79 86 89 99 97 97 93 94 99 110
35 40 42 44 47 44 44 46 46 46 48 48 49 50 50 48 46 46 48 50 49 48 50 52 53 53 56 60 58 66 70 78 73 77 84 85 92 89 90 98 104 100 102
33 34 37 41 44 46 49 53 51 51 52 50 50 52 51 48 46 48 50 51 51 49 48 50 54 55 57 60 57 71 78 78 79 82 86 86 80 90 92 91 88 98 100
30 35 39 43 47 49 55 56 55 56 55 52 53 52 52 47 49 51 52 53 53 52 48 48 52 54 56 46 58 75 79 83 84 84 87 96 96 89 81 77 80 80 93
40 45 47 50 53 57 59 57 56 57 55 53 53 51 52 50 49 53 55 56 57 56 54 50 48 51 46 42 57 70 80 85 90 96 98 101 97 89 77 67 69 76 81
46 49 54 58 61 62 60 58 57 57 57 55 54 52 52 53 52 53 52 53 54 57 57 55 50 49 39 47 51 67 70 71 85 91 96 96 94 89 80 70 67 69 76
52 55 59 64 64 63 59 55 57 58 57 55 56 55 52 52 55 53 52 49 47 50 54 52 48 46 45 53 67 68 70 74 80 89 93 93 91 90 84 74 71 69 68
59 61 66 68 66 61 57 54 56 56 57 57 59 59 53 51 54 51 50 48 47 44 48 45 45 55 59 65 65 65 68 72 77 84 91 89 85 86 84 76 73 71 67
64 65 67 68 65 60 56 54 55 55 56 58 59 59 56 56 54 50 48 43 41 42 45 50 56 62 63 63 63 61 63 67 72 79 86 87 85 84 81 73 78 76 74
62 60 57 56 56 54 52 51 52 53 54 58 59 58 59 61 54 54 45 42 45 42 47 60 62 59 61 60 62 65 65 66 70 75 81 85 82 82 80 72 72 75 71
55 51 49 48 46 47 50 52 52 57 56 57 58 58 58 59 55 38 41 41 40 41 54 59 56 55 60 62 66 69 66 68 69 74 78 80 80 80 83 73 70 72 74
56 56 55 52 52 53 53 54 58 50 56 58 58 57 57 52 48 45 44 43 42 42 54 53 54 55 59 61 63 65 68 65 67 70 74 77 76 76 77 74 72 73 75
55 57 59 60 59 57 56 59 61 62 63 62 57 59 60 58 56 49 44 45 51 51 52 55 54 54 57 61 62 63 63 62 64 66 70 72 72 72 75 72 71 72 74
62 65 65 66 63 61 62 64 66 66 70 73 70 59 55 56 58 55 53 54 55 50 50 53 53 54 55 57 59 59 60 61 61 63 65 68 68 68 69 68 69 66 68
66 66 65 68 70 69 67 67 68 70 70 73 74 68 55 58 61 56 52 54 54 53 51 53 52 50 51 54 57 57 58 57 57 59 61 63 64 63 64 65 65 68 66
66 67 64 64 63 64 67 70 69 68 71 71 69 61 56 61 61 60 54 52 51 50 51 52 54 51 52 53 58 56 56 55 53 56 57 59 61 61 58 58 61 61 62
62 64 65 64 64 62 62 62 65 68 70 69 69 62 51 52 62 57 53 51 46 48 49 52 53 51 51 53 57 54 54 53 51 52 54 55 57 56 55 55 58 59 58
59 61 62 63 61 61 61 59 60 61 63 64 63 62 60 55 56 55 54 50 46 46 45 50 53 51 50 51 53 52 52 51 48 50 53 53 54 53 52 53 55 57 57
55 56 57 59 60 60 60 59 57 56 57 56 55 54 52 50 52 53 51 48 45 46 43 47 48 49 51 50 50 48 48 48 45 46 49 51 51 50 50 49 49 50 51
55 55 55 57 59 60 59 56 55 54 52 51 51 51 50 47 48 49 50 46 43 46 44 45 46 48 50 50 49 46 45 45 42 43 45 46 47 46 47 47 44 44 44
56 57 58 58 57 57 56 56 53 52 51 49 46 44 44 44 44 44 43 44 43 45 46 44 46 47 48 47 46 44 43 43 39 38 42 41 42 43 42 41 38 38 39
Wind_Direction_850mb
240 271 302 317 325 321 311 303 309 316 324 328 331 334 334 335 336 336 336 336 336 336 336 337 338 337 338 336 336 334 331 328 318 321 323 327 327 328 328 326 325 325 322
238 261 288 308 318 321 311 299 298 307 316 322 325 328 328 329 330 331 331 331 331 331 332 334 335 335 335 335 334 333 332 330 324 321 324 326 326 327 327 324 324 321 320
242 260 280 299 310 318 312 297 292 300 309 315 319 322 323 324 325 325 326 326 327 327 328 331 331 331 332 332 331 332 332 329 325 322 320 324 323 326 325 322 320 319 318
250 266 280 293 304 315 309 297 291 297 305 310 314 317 319 320 321 321 321 321 321 322 324 326 326 327 328 327 329 331 329 326 327 324 317 318 320 324 323 321 318 319 318
261 269 278 290 301 310 306 296 293 297 301 305 309 311 314 316 317 316 318 319 319 319 319 320 321 323 323 327 330 328 327 327 321 314 314 317 320 322 321 319 315 315 315
265 271 277 290 301 304 300 295 295 300 300 301 304 305 310 312 312 313 316 315 315 315 315 317 318 321 321 325 327 325 320 316 315 314 312 311 314 316 317 314 310 312 313
270 274 281 292 299 299 292 290 294 300 299 299 299 301 305 308 307 309 312 311 312 313 314 315 315 319 322 322 323 330 320 322 322 319 313 311 311 317 313 308 305 305 302
278 279 287 293 296 295 288 286 289 295 297 295 296 295 299 303 302 306 307 307 307 307 308 310 314 319 322 325 336 313 317 324 326 321 315 314 310 308 307 305 303 303 305
284 284 284 289 296 298 295 290 286 286 294 294 292 291 295 297 298 302 303 302 302 303 305 311 315 319 322 335 315 314 322 324 322 323 319 315 315 316 312 308 307 308 305
275 279 285 289 295 297 297 289 281 284 290 288 288 289 292 293 295 299 300 300 300 304 305 308 315 319 317 320 317 316 322 324 326 324 320 318 318 317 315 311 312 309 306
277 287 293 295 296 298 296 285 280 282 285 286 286 286 287 289 292 295 296 298 301 303 305 311 313 317 313 316 318 320 321 319 321 320 319 320 320 319 318 315 314 312 306
288 296 301 302 301 300 295 284 276 279 282 282 283 283 285 287 291 294 294 296 298 296 300 306 314 322 306 315 319 320 318 319 320 322 324 325 324 322 321 317 316 314 309
295 299 301 301 300 298 290 280 273 275 277 280 280 282 283 284 287 289 290 292 291 291 299 306 301 305 313 314 317 319 319 321 323 325 327 327 326 324 322 320 320 322 312
300 302 302 301 300 296 287 276 271 270 276 280 280 282 285 286 287 287 288 286 283 293 303 308 308 306 307 310 313 318 320 323 326 327 328 328 326 327 327 328 331 331 325
300 301 302 302 302 297 287 277 272 272 275 279 280 282 285 286 287 285 291 297 301 309 302 291 296 303 307 313 317 319 323 326 327 327 330 330 329 329 330 331 335 336 333
304 306 307 304 300 295 290 283 279 280 280 278 280 283 287 287 289 284 278 279 285 284 281 287 298 305 310 315 317 318 322 325 327 328 330 332 331 331 331 331 336 338 336
310 311 311 310 305 300 292 286 285 277 275 274 274 278 277 274 273 274 273 280 277 277 277 292 299 305 308 311 313 316 319 323 325 327 330 332 332 330 333 333 336 339 338
307 307 307 306 304 299 293 289 284 281 279 272 271 276 275 274 271 272 274 274 271 275 285 291 297 301 305 308 311 313 316 320 323 325 329 332 333 332 333 334 336 339 340
305 304 303 300 298 295 292 288 284 282 281 282 282 273 271 270 269 271 276 272 279 281 285 287 293 298 302 305 307 310 314 318 322 323 327 331 333 332 333 335 335 339 342
303 301 299 297 295 292 287 283 281 280 279 279 280 280 274 265 264 266 269 272 275 281 284 286 290 295 300 303 305 308 312 315 319 321 325 329 333 333 333 336 338 339 343
308 307 306 302 299 295 290 285 282 279 276 274 275 278 277 274 270 269 268 268 272 277 281 286 290 297 301 303 303 305 309 313 317 319 322 328 332 333 333 337 337 340 344
308 308 308 309 308 304 299 294 288 283 281 280 277 275 270 267 269 274 272 269 271 273 279 284 288 294 298 300 300 303 307 312 316 318 321 325 330 333 332 337 338 341 345
311 310 308 307 307 305 301 298 294 289 286 284 282 280 278 270 267 267 269 270 270 272 275 280 286 292 294 296 297 301 304 310 313 317 319 323 329 332 333 336 339 341 345
309 311 312 311 309 308 305 301 298 295 291 287 285 282 280 277 273 270 268 267 269 272 275 279 284 291 293 295 296 298 300 304 309 313 314 319 326 330 333 334 337 340 344
315 315 314 313 313 312 307 303 301 299 296 291 287 284 282 278 274 274 274 269 268 272 276 279 285 288 291 293 295 296 298 301 306 309 310 315 321 328 331 333 336 339 342
318 317 316 313 310 310 309 305 301 301 297 296 291 285 282 277 274 274 274 270 268 272 277 280 284 287 289 290 291 293 294 296 301 304 304 311 320 328 329 333 335 339 340